Weather History for KHIE - May, 2014

Change the Weather History Date:

Thursday, May 8, 2014

  Actual Average Record
Temperature  
Mean Temperature 48 °F -  
Max Temperature 69 °F 61 °F 82 °F (2015)
Min Temperature 27 °F 33 °F 24 °F (2001)
Degree Days  
Heating Degree Days 17    
Moisture  
Dew Point 26 °F    
Average Humidity 53    
Maximum Humidity 89    
Minimum Humidity 16    
Precipitation  
Precipitation 0.00 in - - ()
Sea Level Pressure  
Sea Level Pressure 30.19 in    
Wind  
Wind Speed 2 mph (NNE)    
Max Wind Speed 13 mph    
Max Gust Speed 17 mph    
Visibility 10 miles    
Events      
Averages and records for this station are not official NWS values.
T = Trace of Precipitation, MM = Missing Value Source: NWS Daily Summary

Daily Weather History Graph

Daily Weather History Graph

Search for Another Location

Airport or City:

Trip Planner

Search our weather history database for the weather conditions in past years. The results will help you decide how hot, cold, wet, or windy it might be!

Date:

Astronomy

May. 08, 2014 Rise Set
Actual Time 5:27 AM EDT 7:58 PM EDT
Civil Twilight 4:54 AM EDT 8:31 PM EDT
Nautical Twilight 4:13 AM EDT 9:12 PM EDT
Astronomical Twilight 3:27 AM EDT 9:59 PM EDT
Moon 1:42 PM EDT (5/8) 2:11 AM EDT (5/8)
Length of Visible Light 15h 36m
Length of Day
14h 31m
Waxing Gibbous, 64% of the Moon is Illuminated
May 8
Waxing Gibbous
May 14
Full
May 21
Last Quarter
May 28
New
Jun 5
First Quarter

Hourly Weather History & Observations

Time (EDT) Temp. Dew Point Humidity Pressure Visibility Wind Dir Wind Speed Gust Speed Precip Events Conditions
12:52 AM 30.9 °F 27.0 °F 85% 30.21 in 10.0 mi Calm Calm - N/A   Clear
1:52 AM 30.0 °F 27.0 °F 88% 30.21 in 10.0 mi Calm Calm - N/A   Clear
3:52 AM 28.0 °F 25.0 °F 88% 30.22 in 10.0 mi Calm Calm - N/A   Clear
4:52 AM 27.0 °F 24.1 °F 89% 30.22 in 10.0 mi Calm Calm - N/A   Clear
5:52 AM 27.0 °F 24.1 °F 89% 30.22 in 10.0 mi Calm Calm - N/A   Clear
6:52 AM 30.9 °F 28.0 °F 89% 30.22 in 10.0 mi Calm Calm - N/A   Clear
7:52 AM 39.9 °F 32.0 °F 73% 30.23 in 10.0 mi Calm Calm - N/A   Clear
8:52 AM 48.9 °F 33.1 °F 54% 30.22 in 10.0 mi Calm Calm - N/A   Clear
9:52 AM 57.9 °F 28.9 °F 33% 30.21 in 10.0 mi Calm Calm - N/A   Clear
11:52 AM 64.0 °F 24.1 °F 22% 30.16 in 10.0 mi NNE 9.2 mph - N/A   Clear
12:52 PM 66.0 °F 25.0 °F 21% 30.14 in 10.0 mi NE 6.9 mph - N/A   Clear
2:52 PM 69.1 °F 21.0 °F 16% 30.13 in 10.0 mi NNW 12.7 mph 17.3 mph N/A   Clear
3:52 PM 66.9 °F 19.9 °F 17% 30.12 in 10.0 mi Variable 4.6 mph 17.3 mph N/A   Clear
5:52 PM 64.0 °F 23.0 °F 21% 30.13 in 10.0 mi NNE 5.8 mph - N/A   Clear
6:52 PM 62.1 °F 21.0 °F 21% 30.15 in 10.0 mi North 6.9 mph - N/A   Clear
8:52 PM 50.0 °F 32.0 °F 50% 30.18 in 10.0 mi Calm Calm - N/A   Clear
9:52 PM 48.0 °F 33.1 °F 56% 30.19 in 10.0 mi Calm Calm - N/A   Clear
10:52 PM 44.1 °F 34.0 °F 68% 30.20 in 10.0 mi Calm Calm - N/A   Clear
11:52 PM 55.0 °F 19.9 °F 25% 30.19 in 10.0 mi East 9.2 mph - N/A   Clear